San Carlos, CA

9:29 AM PDT on May 27, 2018 (GMT -0700)
San Carlos

Weather History for KSQL - September, 2012

Change the Weather History Date:

Sunday, September 2, 2012

  Actual Average Record
Temperature  
Mean Temperature 66 °F -  
Max Temperature 80 °F 83 °F 105 °F (1950)
Min Temperature 53 °F 53 °F 45 °F (1975)
Cooling Degree Days 2    
Growing Degree Days 16 (Base 50)    
Moisture  
Dew Point 53 °F    
Average Humidity 77    
Maximum Humidity 100    
Minimum Humidity 39    
Precipitation  
Precipitation 0.00 in - - ()
Sea Level Pressure  
Sea Level Pressure 29.96 in    
Wind  
Wind Speed 2 mph (NNW)    
Max Wind Speed 9 mph    
Max Gust Speed -    
Visibility 9 miles    
Events      
Averages and records for this station are not official NWS values.
T = Trace of Precipitation, MM = Missing Value Source: NWS Daily Summary

Daily Weather History Graph

Daily Weather History Graph

Search for Another Location

Airport or City:

Astronomy

Sep. 02, 2012 Rise Set
Actual Time 6:40 AM PDT 7:35 PM PDT
Civil Twilight 6:13 AM PDT 8:02 PM PDT
Nautical Twilight 5:42 AM PDT 8:33 PM PDT
Astronomical Twilight 5:09 AM PDT 9:06 PM PDT
Moon 8:30 PM PDT (9/2) 8:50 AM PDT (9/2)
Length of Visible Light 13h 48m
Length of Day
12h 54m
Waning Gibbous, 95% of the Moon is Illuminated
Sep 2
Waning Gibbous
Sep 8
Last Quarter
Sep 15
New
Sep 22
First Quarter
Sep 29
Full

Hourly Weather History & Observations

Time (PDT) Temp. Heat Index Dew Point Humidity Pressure Visibility Wind Dir Wind Speed Gust Speed Precip Events Conditions
12:10 AM 57.2 °F - 53.6 °F 88% 30.00 in 10.0 mi Calm Calm - N/A   Clear
12:35 AM 57.2 °F - 53.6 °F 88% 30.00 in 10.0 mi Calm Calm - N/A   Clear
1:10 AM 55.4 °F - 50.0 °F 82% 29.99 in 10.0 mi Calm Calm - N/A   Clear
1:35 AM 55.4 °F - 50.0 °F 82% 29.99 in 10.0 mi Calm Calm - N/A   Clear
1:55 AM 55.4 °F - 50.0 °F 82% 29.99 in 10.0 mi Calm Calm - N/A   Clear
2:10 AM 55.4 °F - 50.0 °F 82% 29.99 in 10.0 mi NW 3.5 mph - N/A   Clear
2:35 AM 55.4 °F - 50.0 °F 82% 29.98 in 10.0 mi Calm Calm - N/A   Partly Cloudy
2:55 AM 55.4 °F - 50.0 °F 82% 29.98 in 10.0 mi Calm Calm - N/A   Scattered Clouds
3:15 AM 55.4 °F - 50.0 °F 82% 29.98 in 10.0 mi Calm Calm - N/A   Mostly Cloudy
3:30 AM 53.6 °F - 50.0 °F 88% 29.97 in 10.0 mi Calm Calm - N/A   Partly Cloudy
3:55 AM 53.6 °F - 50.0 °F 88% 29.97 in 10.0 mi Calm Calm - N/A   Partly Cloudy
4:10 AM 53.6 °F - 50.0 °F 88% 29.97 in 10.0 mi Calm Calm - N/A   Partly Cloudy
4:30 AM 53.6 °F - 48.2 °F 82% 29.96 in 10.0 mi Calm Calm - N/A   Mostly Cloudy
4:55 AM 53.6 °F - 50.0 °F 88% 29.96 in 10.0 mi Calm Calm - N/A   Overcast
5:15 AM 53.6 °F - 50.0 °F 88% 29.96 in 10.0 mi Calm Calm - N/A   Overcast
5:30 AM 55.4 °F - 50.0 °F 82% 29.97 in 10.0 mi Calm Calm - N/A   Overcast
5:55 AM 55.4 °F - 53.6 °F 94% 29.97 in 6.0 mi Calm Calm - N/A   Overcast
6:15 AM 55.4 °F - 53.6 °F 94% 29.97 in 5.0 mi SW 3.5 mph - N/A   Overcast
6:30 AM 55.4 °F - 53.6 °F 94% 29.97 in 3.0 mi SW 3.5 mph - N/A   Overcast
6:47 AM 55.4 °F - 53.6 °F 94% 29.98 in 1.5 mi SSW 3.5 mph - N/A   Overcast
6:55 AM 55.4 °F - 53.6 °F 94% 29.98 in 1.2 mi Calm Calm - N/A   Overcast
7:47 AM 55.4 °F - 55.4 °F 100% 29.99 in 1.8 mi SSE 3.5 mph - N/A   Overcast
8:55 AM 57.2 °F - 55.4 °F 94% 29.99 in 3.0 mi Calm Calm - N/A   Overcast
9:47 AM 59.0 °F - 55.4 °F 88% 29.99 in 5.0 mi Calm Calm - N/A   Haze
10:48 AM 64.4 °F - 55.4 °F 73% 29.99 in 8.0 mi North 5.8 mph - N/A   Partly Cloudy
11:51 AM 66.2 °F - 57.2 °F 73% 29.98 in 8.0 mi NW 5.8 mph - N/A   Clear
12:49 PM 71.6 °F - 55.4 °F 57% 29.97 in 10.0 mi NNW 5.8 mph - N/A   Clear
1:47 PM 75.2 °F - 53.6 °F 47% 29.95 in 10.0 mi NNW 8.1 mph - N/A   Clear
2:47 PM 77.0 °F - 53.6 °F 44% 29.95 in 10.0 mi NNW 9.2 mph - N/A   Clear
3:47 PM 77.0 °F - 51.8 °F 41% 29.91 in 30.0 mi NNW 9.2 mph - N/A   Unknown
4:47 PM 80.6 °F 80.3 °F 53.6 °F 39% 29.90 in 30.0 mi NNW 8.1 mph - N/A   Clear
5:48 PM 75.2 °F - 57.2 °F 53% 29.89 in 30.0 mi North 8.1 mph - N/A   Clear
6:47 PM 75.2 °F - 55.4 °F 50% 29.89 in 20.0 mi North 6.9 mph - N/A   Clear
7:48 PM 69.8 °F - 53.6 °F 56% 29.90 in 10.0 mi NNW 5.8 mph - N/A   Clear
8:47 PM 64.4 °F - 55.4 °F 73% 29.91 in 10.0 mi North 4.6 mph - N/A   Clear
9:10 PM 62.6 °F - 55.4 °F 77% 29.92 in 10.0 mi North 4.6 mph - N/A   Clear
9:35 PM 62.6 °F - 53.6 °F 72% 29.93 in 10.0 mi North 3.5 mph - N/A   Clear
9:55 PM 62.6 °F - 53.6 °F 72% 29.93 in 10.0 mi NNW 3.5 mph - N/A   Clear
10:10 PM 60.8 °F - 53.6 °F 77% 29.93 in 10.0 mi North 3.5 mph - N/A   Clear
10:35 PM 60.8 °F - 53.6 °F 77% 29.93 in 10.0 mi Calm Calm - N/A   Clear
10:55 PM 60.8 °F - 53.6 °F 77% 29.93 in 10.0 mi Calm Calm - N/A   Clear
11:10 PM 60.8 °F - 53.6 °F 77% 29.93 in 10.0 mi Calm Calm - N/A   Clear
11:35 PM 60.8 °F - 53.6 °F 77% 29.93 in 10.0 mi Calm Calm - N/A   Clear
11:55 PM 60.8 °F - 53.6 °F 77% 29.93 in 10.0 mi Calm Calm - N/A   Clear